Lambertville, OH

6:42 AM EDT on April 25, 2017 (GMT -0400)
Lambertville

Weather History for KDUH - February, 2013

Change the Weather History Date:

Thursday, February 21, 2013

  Actual Average (KTOL) Record (KTOL)
Temperature  
Mean Temperature 24 °F -  
Max Temperature 26 °F 39 °F 68 °F (1930)
Min Temperature 21 °F 22 °F -9 °F (1978)
Degree Days  
Heating Degree Days 42    
Moisture  
Dew Point 15 °F    
Average Humidity 69    
Maximum Humidity 75    
Minimum Humidity 63    
Precipitation  
Precipitation 0.00 in - - ()
Sea Level Pressure  
Sea Level Pressure 30.30 in    
Wind  
Wind Speed 6 mph (NE)    
Max Wind Speed 14 mph    
Max Gust Speed 20 mph    
Visibility 10 miles    
Events Snow    
Averages and records for this station are not official NWS values.
T = Trace of Precipitation, MM = Missing Value Source: NWS Daily Summary

Daily Weather History Graph

Daily Weather History Graph

Search for Another Location

Airport or City:

Trip Planner

Search our weather history database for the weather conditions in past years. The results will help you decide how hot, cold, wet, or windy it might be!

Date:

Astronomy

Feb. 21, 2013 Rise Set
Actual Time 7:21 AM EST 6:15 PM EST
Civil Twilight 6:53 AM EST 6:43 PM EST
Nautical Twilight 6:20 AM EST 7:16 PM EST
Astronomical Twilight 5:48 AM EST 7:48 PM EST
Moon 2:27 PM EST (2/21) 4:27 AM EST (2/21)
Length of Visible Light 11h 50m
Length of Day
10h 54m
Waxing Gibbous, 83% of the Moon is Illuminated
Feb 21
Waxing Gibbous
Feb 25
Full
Mar 4
Last Quarter
Mar 11
New
Mar 19
First Quarter

Hourly Weather History & Observations

Time (EST) Temp. Windchill Dew Point Humidity Pressure Visibility Wind Dir Wind Speed Gust Speed Precip Events Conditions
12:15 AM 23.5 °F 17.6 °F 15.4 °F 71% 30.24 in 10.0 mi WNW 4.6 mph - N/A Snow Light Snow
12:35 AM 23.5 °F 17.6 °F 15.3 °F 71% 30.24 in 10.0 mi WNW 4.6 mph - N/A   Overcast
12:55 AM 23.4 °F 16.2 °F 15.4 °F 72% 30.24 in 7.0 mi NW 5.8 mph - N/A Snow Light Snow
1:15 AM 23.2 °F 16.0 °F 16.2 °F 75% 30.25 in 7.0 mi NNW 5.8 mph - N/A Snow Light Snow
1:35 AM 23.2 °F 15.0 °F 14.7 °F 70% 30.25 in 10.0 mi NW 6.9 mph - N/A Snow Light Snow
1:55 AM 23.0 °F 15.8 °F 15.4 °F 73% 30.26 in 7.0 mi NNW 5.8 mph - N/A Snow Light Snow
2:15 AM 23.0 °F 15.8 °F 14.9 °F 71% 30.27 in 10.0 mi NNW 5.8 mph - N/A   Overcast
2:35 AM 23.4 °F 14.3 °F 14.4 °F 68% 30.27 in 10.0 mi NW 8.1 mph - N/A Snow Light Snow
2:55 AM 23.0 °F 14.7 °F 14.0 °F 68% 30.27 in 10.0 mi NW 6.9 mph - N/A Snow Light Snow
3:15 AM 23.0 °F 14.7 °F 14.5 °F 70% 30.27 in 10.0 mi NW 6.9 mph - N/A Snow Light Snow
3:35 AM 23.0 °F 14.7 °F 13.8 °F 68% 30.27 in 10.0 mi NNW 6.9 mph - N/A   Overcast
3:55 AM 23.0 °F 17.0 °F 14.7 °F 71% 30.26 in 10.0 mi NW 4.6 mph - N/A Snow Light Snow
4:15 AM 23.0 °F 18.4 °F 15.3 °F 72% 30.27 in 10.0 mi NW 3.5 mph - N/A Snow Light Snow
4:35 AM 23.0 °F 17.0 °F 14.9 °F 71% 30.27 in 10.0 mi NW 4.6 mph - N/A Snow Light Snow
4:55 AM 23.0 °F 13.1 °F 14.5 °F 70% 30.27 in 10.0 mi NW 9.2 mph - N/A   Overcast
5:15 AM 23.2 °F 16.0 °F 14.4 °F 69% 30.28 in 10.0 mi NW 5.8 mph - N/A   Overcast
5:35 AM 23.4 °F 14.3 °F 14.4 °F 68% 30.29 in 10.0 mi WNW 8.1 mph - N/A   Overcast
5:55 AM 23.4 °F 16.2 °F 14.0 °F 67% 30.29 in 10.0 mi NW 5.8 mph - N/A   Overcast
6:15 AM 23.4 °F 16.2 °F 14.0 °F 67% 30.30 in 10.0 mi NW 5.8 mph - N/A Snow Light Snow
6:55 AM 23.5 °F 13.0 °F 14.0 °F 67% 30.31 in 10.0 mi NW 10.4 mph - N/A   Overcast
7:15 AM 23.5 °F 17.6 °F 14.5 °F 69% 30.31 in 10.0 mi NNW 4.6 mph - N/A   Overcast
7:35 AM 23.7 °F 16.6 °F 14.9 °F 69% 30.33 in 10.0 mi NNW 5.8 mph - N/A   Overcast
7:55 AM 23.7 °F 15.6 °F 14.9 °F 69% 30.34 in 10.0 mi NNW 6.9 mph - N/A   Overcast
8:15 AM 23.9 °F 18.0 °F 14.9 °F 69% 30.33 in 10.0 mi NNW 4.6 mph - N/A   Overcast
8:35 AM 23.9 °F 18.0 °F 15.4 °F 70% 30.35 in 10.0 mi North 4.6 mph - N/A   Overcast
8:55 AM 24.1 °F 17.0 °F 15.6 °F 70% 30.34 in 10.0 mi North 5.8 mph - N/A   Overcast
9:15 AM 24.3 °F 15.4 °F 15.6 °F 70% 30.33 in 10.0 mi North 8.1 mph - N/A   Overcast
9:35 AM 23.9 °F 18.0 °F 15.1 °F 69% 30.34 in 10.0 mi North 4.6 mph - N/A   Overcast
9:55 AM 23.9 °F 15.8 °F 14.9 °F 69% 30.34 in 10.0 mi NNE 6.9 mph - N/A   Overcast
10:15 AM 24.6 °F 20.3 °F 15.3 °F 68% 30.34 in 10.0 mi NNE 3.5 mph - N/A   Overcast
10:35 AM 24.6 °F 20.3 °F 15.1 °F 67% 30.36 in 10.0 mi NNE 3.5 mph - N/A   Overcast
10:55 AM 24.6 °F 20.3 °F 14.9 °F 67% 30.36 in 10.0 mi ENE 3.5 mph - N/A   Overcast
11:15 AM 24.8 °F 16.9 °F 14.7 °F 66% 30.38 in 10.0 mi NE 6.9 mph - N/A   Overcast
11:35 AM 24.8 °F 17.9 °F 14.7 °F 66% 30.35 in 10.0 mi ENE 5.8 mph - N/A   Overcast
11:55 AM 25.3 °F 19.7 °F 14.7 °F 64% 30.36 in 10.0 mi North 4.6 mph - N/A   Overcast
12:15 PM 25.3 °F 18.5 °F 14.9 °F 65% 30.35 in 10.0 mi NNE 5.8 mph - N/A   Overcast
12:35 PM 25.3 °F 18.5 °F 15.1 °F 65% 30.34 in 10.0 mi ENE 5.8 mph - N/A   Overcast
12:55 PM 25.7 °F - 14.9 °F 64% 30.35 in 10.0 mi Calm Calm - N/A   Overcast
1:15 PM 25.3 °F - 14.4 °F 63% 30.36 in 10.0 mi Calm Calm - N/A   Overcast
1:35 PM 25.7 °F - 14.5 °F 63% 30.35 in 10.0 mi Calm Calm - N/A   Overcast
1:55 PM 26.4 °F 20.9 °F 15.3 °F 63% 30.32 in 10.0 mi NE 4.6 mph - N/A   Overcast
2:15 PM 25.7 °F 18.0 °F 16.9 °F 69% 30.31 in 10.0 mi East 6.9 mph - N/A   Overcast
2:35 PM 25.0 °F 17.1 °F 16.5 °F 70% 30.32 in 10.0 mi ESE 6.9 mph - N/A   Overcast
2:55 PM 25.2 °F 17.3 °F 16.3 °F 69% 30.31 in 10.0 mi East 6.9 mph - N/A   Overcast
3:15 PM 25.2 °F 15.7 °F 16.2 °F 69% 30.30 in 10.0 mi East 9.2 mph - N/A   Overcast
3:35 PM 25.0 °F 15.5 °F 15.8 °F 68% 30.28 in 10.0 mi ESE 9.2 mph - N/A   Overcast
3:55 PM 23.9 °F 14.2 °F 15.8 °F 71% 30.28 in 10.0 mi ENE 9.2 mph - N/A   Overcast
4:15 PM 23.9 °F 12.9 °F 15.8 °F 71% 30.30 in 7.0 mi East 11.5 mph - N/A Snow Light Snow
4:35 PM 23.9 °F 15.0 °F 15.3 °F 70% 30.33 in 10.0 mi ESE 8.1 mph - N/A   Overcast
4:55 PM 23.9 °F 15.8 °F 14.7 °F 68% 30.33 in 10.0 mi East 6.9 mph - N/A   Overcast
5:15 PM 23.5 °F 13.0 °F 14.0 °F 67% 30.34 in 10.0 mi East 10.4 mph - N/A   Scattered Clouds
5:35 PM 23.4 °F 14.3 °F 13.6 °F 66% 30.33 in 10.0 mi East 8.1 mph - N/A   Clear
5:55 PM 22.6 °F 13.4 °F 13.6 °F 68% 30.33 in 10.0 mi East 8.1 mph - N/A   Clear
6:15 PM 22.6 °F 14.3 °F 13.8 °F 69% 30.35 in 10.0 mi East 6.9 mph - N/A   Clear
6:35 PM 22.1 °F 12.0 °F 13.5 °F 69% 30.35 in 10.0 mi ESE 9.2 mph - N/A   Clear
6:55 PM 22.1 °F 12.0 °F 13.5 °F 69% 30.33 in 10.0 mi East 9.2 mph - N/A   Scattered Clouds
7:15 PM 21.9 °F 11.0 °F 13.6 °F 70% 30.31 in 10.0 mi East 10.4 mph - N/A   Scattered Clouds
7:35 PM 22.1 °F 9.5 °F 13.8 °F 70% 30.32 in 10.0 mi East 13.8 mph 17.3 mph N/A   Mostly Cloudy
7:55 PM 22.5 °F 13.2 °F 14.0 °F 70% 30.31 in 10.0 mi East 8.1 mph - N/A   Overcast
8:15 PM 22.6 °F 15.3 °F 14.7 °F 72% 30.30 in 10.0 mi East 5.8 mph 17.3 mph N/A   Overcast
8:35 PM 22.8 °F 12.9 °F 15.3 °F 73% 30.30 in 10.0 mi East 9.2 mph - N/A   Overcast
8:55 PM 23.0 °F 13.9 °F 15.3 °F 72% 30.29 in 10.0 mi East 8.1 mph - N/A   Overcast
9:15 PM 23.4 °F 14.3 °F 15.8 °F 73% 30.28 in 10.0 mi East 8.1 mph 16.1 mph N/A   Overcast
9:35 PM 23.5 °F 15.4 °F 16.0 °F 73% 30.28 in 10.0 mi ESE 6.9 mph 18.4 mph N/A   Overcast
9:55 PM 23.7 °F 14.0 °F 16.5 °F 74% 30.28 in 10.0 mi East 9.2 mph - N/A   Overcast
10:15 PM 23.9 °F 15.0 °F 16.7 °F 74% 30.27 in 10.0 mi East 8.1 mph - N/A   Overcast
10:35 PM 23.9 °F 12.9 °F 16.7 °F 74% 30.28 in 10.0 mi East 11.5 mph 18.4 mph N/A   Overcast
10:55 PM 23.9 °F 14.2 °F 16.7 °F 74% 30.27 in 10.0 mi East 9.2 mph - N/A   Overcast
11:15 PM 23.9 °F 12.9 °F 17.1 °F 75% 30.25 in 10.0 mi East 11.5 mph 19.6 mph N/A   Overcast
11:35 PM 23.9 °F 15.0 °F 16.9 °F 75% 30.25 in 10.0 mi East 8.1 mph 17.3 mph N/A   Overcast
11:55 PM 23.9 °F 12.3 °F 17.1 °F 75% 30.23 in 10.0 mi East 12.7 mph 18.4 mph N/A   Overcast